When you browse on this site, cookies collect data to enhance your experience and personalize the content and advertising you see.
Visit our Privacy Policy to learn more. By continuing to use the site, you agree to this use of cookies and data.
  • en Suisse
  • Liste des pays
  • À 7 jours
  • Température de l'eau
  • Carte météo
  • Widgets météo
  • user-avatar
    Se connecter

    Météo par heure à Ropotamo

    Ce jour, 17 Octobre, Jeudi

    Heure Température Précipitation Vent Pression Humidité
    00:00 +14°C° 0 mm 1 m/s 760 mmHg 94%
    01:00 +14°C° 0 mm 1 m/s 760 mmHg 94%
    02:00 +14°C° 0 mm 1 m/s 760 mmHg 93%
    03:00 +14°C° 0 mm 1 m/s 760 mmHg 94%
    04:00 +14°C° 0 mm 1 m/s 760 mmHg 94%
    05:00 +14°C° 0 mm 1 m/s 759 mmHg 94%
    06:00 +15°C° 0 mm 1 m/s 760 mmHg 92%
    07:00 +16°C° 0 mm 1 m/s 760 mmHg 89%
    08:00 +16°C° 0 mm 1 m/s 760 mmHg 87%
    09:00 +19°C° 0 mm 1 m/s 760 mmHg 78%
    10:00 +21°C° 0 mm 1 m/s 760 mmHg 69%
    11:00 +23°C° 0 mm 1 m/s 760 mmHg 60%
    12:00 +23°C° 0.1 mm 2 m/s 760 mmHg 60%
    13:00 +24°C° 0.1 mm 2 m/s 760 mmHg 60%
    14:00 +24°C° 0.1 mm 2 m/s 760 mmHg 60%
    15:00 +21°C° 0.1 mm 2 m/s 760 mmHg 67%
    16:00 +20°C° 0.1 mm 2 m/s 760 mmHg 74%
    17:00 +19°C° 0.1 mm 2 m/s 759 mmHg 81%
    18:00 +19°C° 0.1 mm 1 m/s 760 mmHg 83%
    19:00 +18°C° 0.1 mm 1 m/s 760 mmHg 86%
    20:00 +16°C° 0.1 mm 1 m/s 760 mmHg 88%
    21:00 +15°C° 0 mm 0 m/s 760 mmHg 87%
    22:00 +15°C° 0 mm 0 m/s 760 mmHg 85%
    23:00 +14°C° 0 mm 0 m/s 760 mmHg 83%

    Demain, 18 Octobre, Vendredi

    Heure Température Précipitation Vent Pression Humidité
    00:00 +14°C° 0 mm 0 m/s 760 mmHg 83%
    01:00 +15°C° 0 mm 1 m/s 760 mmHg 82%
    02:00 +15°C° 0 mm 1 m/s 760 mmHg 81%
    03:00 +14°C° 0 mm 1 m/s 760 mmHg 81%
    04:00 +14°C° 0 mm 1 m/s 760 mmHg 81%
    05:00 +14°C° 0 mm 1 m/s 760 mmHg 81%
    06:00 +15°C° 0 mm 1 m/s 760 mmHg 77%
    07:00 +16°C° 0 mm 1 m/s 760 mmHg 73%
    08:00 +18°C° 0 mm 1 m/s 760 mmHg 69%
    09:00 +20°C° 0 mm 1 m/s 760 mmHg 63%
    10:00 +22°C° 0 mm 1 m/s 760 mmHg 57%
    11:00 +24°C° 0 mm 1 m/s 760 mmHg 50%
    12:00 +24°C° 0 mm 1 m/s 760 mmHg 50%
    13:00 +24°C° 0 mm 2 m/s 760 mmHg 50%
    14:00 +24°C° 0 mm 2 m/s 759 mmHg 50%
    15:00 +23°C° 0 mm 2 m/s 759 mmHg 57%
    16:00 +20°C° 0 mm 2 m/s 759 mmHg 65%
    17:00 +20°C° 0 mm 1 m/s 759 mmHg 72%
    18:00 +19°C° 0 mm 1 m/s 759 mmHg 75%
    19:00 +18°C° 0 mm 1 m/s 759 mmHg 78%
    20:00 +16°C° 0 mm 1 m/s 759 mmHg 80%
    21:00 +15°C° 0 mm 1 m/s 760 mmHg 79%
    22:00 +15°C° 0 mm 1 m/s 760 mmHg 78%
    23:00 +15°C° 0 mm 1 m/s 760 mmHg 77%

    Après-demain, 19 Octobre, Samedi

    Heure Température Précipitation Vent Pression Humidité
    00:00 +15°C° 0 mm 1 m/s 760 mmHg 75%
    01:00 +15°C° 0 mm 1 m/s 760 mmHg 73%
    02:00 +14°C° 0 mm 1 m/s 760 mmHg 71%
    03:00 +14°C° 0 mm 1 m/s 760 mmHg 71%
    04:00 +13°C° 0 mm 0 m/s 760 mmHg 70%
    05:00 +13°C° 0 mm 0 m/s 760 mmHg 69%
    06:00 +14°C° 0 mm 0 m/s 760 mmHg 66%
    07:00 +15°C° 0 mm 0 m/s 760 mmHg 63%
    08:00 +16°C° 0 mm 0 m/s 760 mmHg 59%
    09:00 +18°C° 0 mm 0 m/s 760 mmHg 55%
    10:00 +22°C° 0 mm 1 m/s 760 mmHg 50%
    11:00 +24°C° 0 mm 1 m/s 761 mmHg 45%
    12:00 +24°C° 0 mm 1 m/s 760 mmHg 45%
    13:00 +25°C° 0 mm 2 m/s 760 mmHg 46%
    14:00 +25°C° 0 mm 2 m/s 760 mmHg 47%
    15:00 +23°C° 0 mm 2 m/s 760 mmHg 55%
    16:00 +20°C° 0 mm 2 m/s 760 mmHg 63%
    17:00 +19°C° 0 mm 2 m/s 760 mmHg 71%
    18:00 +18°C° 0 mm 2 m/s 760 mmHg 75%
    19:00 +17°C° 0 mm 2 m/s 760 mmHg 79%
    20:00 +16°C° 0 mm 2 m/s 761 mmHg 83%
    21:00 +15°C° 0 mm 1 m/s 761 mmHg 82%
    22:00 +15°C° 0 mm 1 m/s 761 mmHg 81%
    23:00 +15°C° 0 mm 1 m/s 761 mmHg 79%

    20 Octobre, Dimanche

    Heure Température Précipitation Vent Pression Humidité
    00:00 +15°C° 0 mm 1 m/s 761 mmHg 77%
    01:00 +14°C° 0 mm 0 m/s 761 mmHg 76%
    02:00 +13°C° 0 mm 0 m/s 761 mmHg 74%
    03:00 +13°C° 0 mm 0 m/s 761 mmHg 72%
    04:00 +13°C° 0 mm 0 m/s 761 mmHg 71%
    05:00 +13°C° 0 mm 0 m/s 761 mmHg 70%
    06:00 +14°C° 0 mm 0 m/s 761 mmHg 66%
    07:00 +15°C° 0 mm 0 m/s 762 mmHg 62%
    08:00 +16°C° 0 mm 0 m/s 762 mmHg 58%
    09:00 +20°C° 0 mm 1 m/s 762 mmHg 54%
    10:00 +22°C° 0 mm 1 m/s 762 mmHg 49%
    11:00 +24°C° 0 mm 1 m/s 762 mmHg 44%
    12:00 +24°C° 0 mm 2 m/s 762 mmHg 45%
    13:00 +24°C° 0 mm 2 m/s 762 mmHg 46%
    14:00 +25°C° 0 mm 2 m/s 761 mmHg 46%
    15:00 +23°C° 0 mm 2 m/s 761 mmHg 54%
    16:00 +20°C° 0 mm 2 m/s 761 mmHg 61%
    17:00 +18°C° 0 mm 2 m/s 761 mmHg 69%
    18:00 +17°C° 0 mm 2 m/s 761 mmHg 72%
    19:00 +16°C° 0 mm 1 m/s 762 mmHg 76%
    20:00 +15°C° 0 mm 1 m/s 762 mmHg 80%
    21:00 +15°C° 0 mm 1 m/s 762 mmHg 80%
    22:00 +15°C° 0 mm 1 m/s 762 mmHg 80%
    23:00 +14°C° 0 mm 1 m/s 762 mmHg 80%

    21 Octobre, Lundi

    Heure Température Précipitation Vent Pression Humidité
    00:00 +14°C° 0 mm 1 m/s 762 mmHg 81%
    01:00 +14°C° 0 mm 1 m/s 762 mmHg 81%
    02:00 +14°C° 0 mm 1 m/s 762 mmHg 82%
    03:00 +14°C° 0 mm 1 m/s 762 mmHg 82%
    04:00 +14°C° 0 mm 1 m/s 762 mmHg 82%
    05:00 +13°C° 0 mm 1 m/s 762 mmHg 82%
    06:00 +14°C° 0 mm 1 m/s 762 mmHg 79%
    07:00 +15°C° 0 mm 1 m/s 762 mmHg 76%
    08:00 +16°C° 0 mm 1 m/s 763 mmHg 73%
    09:00 +18°C° 0 mm 2 m/s 763 mmHg 66%
    10:00 +20°C° 0 mm 2 m/s 763 mmHg 60%
    11:00 +23°C° 0 mm 2 m/s 763 mmHg 53%
    12:00 +22°C° 0 mm 3 m/s 763 mmHg 52%
    13:00 +22°C° 0 mm 3 m/s 763 mmHg 52%
    14:00 +22°C° 0 mm 3 m/s 763 mmHg 51%
    15:00 +21°C° 0 mm 3 m/s 762 mmHg 59%
    16:00 +19°C° 0 mm 3 m/s 762 mmHg 67%
    17:00 +18°C° 0 mm 3 m/s 762 mmHg 75%
    18:00 +17°C° 0 mm 2 m/s 762 mmHg 80%
    19:00 +16°C° 0 mm 2 m/s 762 mmHg 84%
    20:00 +15°C° 0 mm 2 m/s 763 mmHg 89%
    21:00 +15°C° 0 mm 2 m/s 763 mmHg 90%
    22:00 +15°C° 0 mm 2 m/s 763 mmHg 91%
    23:00 +15°C° 0 mm 2 m/s 763 mmHg 92%

    22 Octobre, Mardi

    Heure Température Précipitation Vent Pression Humidité
    00:00 +15°C° 0 mm 2 m/s 763 mmHg 92%
    01:00 +15°C° 0 mm 2 m/s 763 mmHg 92%
    02:00 +15°C° 0 mm 2 m/s 763 mmHg 92%
    03:00 +14°C° 0 mm 2 m/s 762 mmHg 92%
    04:00 +14°C° 0 mm 2 m/s 762 mmHg 91%
    05:00 +14°C° 0 mm 2 m/s 762 mmHg 91%
    06:00 +15°C° 0 mm 2 m/s 762 mmHg 87%
    07:00 +15°C° 0 mm 2 m/s 762 mmHg 83%
    08:00 +16°C° 0 mm 2 m/s 762 mmHg 79%
    09:00 +18°C° 0 mm 3 m/s 762 mmHg 70%
    10:00 +20°C° 0 mm 3 m/s 762 mmHg 62%
    11:00 +21°C° 0 mm 3 m/s 762 mmHg 53%
    12:00 +22°C° 0 mm 4 m/s 762 mmHg 53%
    13:00 +22°C° 0 mm 4 m/s 762 mmHg 53%
    14:00 +22°C° 0 mm 5 m/s 761 mmHg 53%
    15:00 +20°C° 0 mm 5 m/s 761 mmHg 63%
    16:00 +19°C° 0 mm 4 m/s 761 mmHg 74%
    17:00 +18°C° 0 mm 4 m/s 761 mmHg 84%
    18:00 +17°C° 0 mm 4 m/s 761 mmHg 87%
    19:00 +16°C° 0 mm 3 m/s 761 mmHg 91%
    20:00 +14°C° 0 mm 3 m/s 761 mmHg 94%
    21:00 +14°C° 0 mm 3 m/s 761 mmHg 94%
    22:00 +14°C° 0 mm 3 m/s 761 mmHg 94%
    23:00 +14°C° 0 mm 3 m/s 761 mmHg 95%
    Voir plus